一网星座-0690 (ONEWEB-0690)

导读 | 星芒AI

ONEWEB-0690 是 OneWeb 卫星星座计划中的一颗低轨通信卫星,旨在为全球提供高速互联网服务。该卫星采用标准化设计,由阿丽亚娜集团制造,搭载先进通信载荷,支持宽带数据传输。它于2023年发射,运行在约1200公里高度的近极地轨道,与其他 OneWeb 卫星共同构建全球覆盖网络,服务于偏远地区、航空、海运及移动用户,提升全球数字连接能力。

基本信息
目录编号:
61598
目录名称:
ONEWEB-0690
国际标识:
2024-188E
轨道中心:
EARTH
卫星名称:
一网星座-0690
卫星全名:
一网星座-0690 (ONEWEB-0690)
卫星状态:
在轨 (已飞行375 天)
发射日期:
2024-10-20 UTC
国别 :
英国 (GB)
星等 :
--
轨道信息
数据来源 国际轨道数据
星历时间: 2025-10-30T04:39:51+0800
8小时前
查看轨道信息
半长轴: 7595.816km
偏心率: 0.0001792
轨道倾角: 87.886°
近地点辐角 124.042°
升交点赤经 66.909°
平近点角 236.088°
近地点: 1216.319km
远地点: 1219.043km
周期: 109.805分钟
每日圈数: 13.114181
详细信息
卫星平台:
0690
平衡模式:
三轴稳定
覆盖范围:
全球
运营商:
一网卫星公司
运营商所在国:
英国
制造商(研发单位):
空客防务与航天公司
制造商所在国:
法国大都会
使用方式:
暂无
卫星简介
OneWeb 计划是一项全球卫星互联网项目,旨在通过发射低轨道卫星,为全球偏远和无法接入互联网的地区提供高速网络连接。OneWeb 的目标是打造一个由数百颗卫星组成的网络,帮助缩小全球数字鸿沟,推动教育、医疗和经济发展。
2D轨道图
3D轨道图
轨道高度分析图
轨道倾角分析图
轨道综合分析图
查看轨道综合分析图